Beaver Island, MI

4:54 PM EDT on April 26, 2017 (GMT -0400)
Beaver Island

Weather History for KSJX - October, 2013

Change the Weather History Date:

Saturday, October 26, 2013

  Actual Average Record
Temperature  
Mean Temperature 44 °F -  
Max Temperature 51 °F 51 °F 70 °F (1989)
Min Temperature 38 °F 39 °F 25 °F (1990)
Degree Days  
Heating Degree Days 20    
Moisture  
Dew Point 36 °F    
Average Humidity 73    
Maximum Humidity 88    
Minimum Humidity 58    
Precipitation  
Precipitation 0.00 in - - ()
Sea Level Pressure  
Sea Level Pressure 29.72 in    
Wind  
Wind Speed 18 mph (WNW)    
Max Wind Speed 29 mph    
Max Gust Speed 48 mph    
Visibility 10 miles    
Events Rain    
Averages and records for this station are not official NWS values.
T = Trace of Precipitation, MM = Missing Value Source: NWS Daily Summary

Daily Weather History Graph

Daily Weather History Graph

Search for Another Location

Airport or City:

Trip Planner

Search our weather history database for the weather conditions in past years. The results will help you decide how hot, cold, wet, or windy it might be!

Date:

Astronomy

Oct. 26, 2013 Rise Set
Actual Time 8:14 AM EDT 6:37 PM EDT
Civil Twilight 7:43 AM EDT 7:08 PM EDT
Nautical Twilight 7:08 AM EDT 7:42 PM EDT
Astronomical Twilight 6:34 AM EDT 8:17 PM EDT
Moon No Moon Rise 2:32 PM EDT
Length of Visible Light 11h 24m
Length of Day
10h 23m
Waning Gibbous, 53% of the Moon is Illuminated
Oct 26
Waning Gibbous
Oct 26
Last Quarter
Nov 3
New
Nov 10
First Quarter
Nov 17
Full

Hourly Weather History & Observations

Time (EDT) Temp. Windchill Dew Point Humidity Pressure Visibility Wind Dir Wind Speed Gust Speed Precip Events Conditions
12:16 AM 47.3 °F - 39.0 °F 73% 29.68 in 10.0 mi SSW 21.9 mph 32.2 mph N/A   Overcast
12:35 AM 49.3 °F - 37.2 °F 63% 29.66 in 10.0 mi SW 23.0 mph 39.1 mph N/A   Overcast
12:56 AM 49.8 °F - 37.0 °F 61% 29.64 in 10.0 mi SW 25.3 mph 48.3 mph N/A   Overcast
1:15 AM 50.0 °F - 36.5 °F 60% 29.63 in 10.0 mi SW 26.5 mph 36.8 mph N/A Rain Light Rain
1:35 AM 50.0 °F - 36.9 °F 61% 29.61 in 10.0 mi SW 27.6 mph 38.0 mph N/A   Drizzle
1:56 AM 50.4 °F - 36.0 °F 58% 29.60 in 10.0 mi SW 27.6 mph 39.1 mph N/A   Overcast
2:15 AM 50.4 °F - 36.7 °F 59% 29.59 in 10.0 mi SW 28.8 mph 39.1 mph N/A   Overcast
2:36 AM 50.4 °F - 37.4 °F 61% 29.57 in 10.0 mi SW 24.2 mph 32.2 mph N/A   Overcast
2:56 AM 50.9 °F - 37.6 °F 60% 29.57 in 10.0 mi SW 25.3 mph 34.5 mph N/A   Overcast
3:15 AM 50.9 °F - 38.5 °F 62% 29.56 in 10.0 mi SW 27.6 mph 36.8 mph N/A   Overcast
3:36 AM 50.9 °F - 39.9 °F 66% 29.55 in 10.0 mi WSW 25.3 mph 33.4 mph N/A   Overcast
3:56 AM 51.3 °F - 39.6 °F 64% 29.55 in 10.0 mi WSW 21.9 mph 29.9 mph N/A   Overcast
4:15 AM 47.7 °F - 39.4 °F 73% 29.55 in 10.0 mi West 10.4 mph 27.6 mph N/A Rain Light Rain
4:36 AM 48.7 °F - 41.2 °F 75% 29.56 in 10.0 mi West 20.7 mph 40.3 mph N/A Rain Light Rain
4:55 AM 46.9 °F - 40.5 °F 78% 29.55 in 10.0 mi West 11.5 mph 21.9 mph N/A   Overcast
5:15 AM 47.3 °F - 38.3 °F 71% 29.57 in 10.0 mi West 17.3 mph 25.3 mph N/A   Mostly Cloudy
5:36 AM 46.9 °F - 38.1 °F 71% 29.57 in 10.0 mi West 12.7 mph 24.2 mph N/A   Scattered Clouds
5:55 AM 46.8 °F - 37.4 °F 70% 29.58 in 10.0 mi West 17.3 mph 28.8 mph N/A   Scattered Clouds
6:15 AM 46.6 °F - 36.9 °F 69% 29.58 in 10.0 mi West 15.0 mph 24.2 mph N/A   Mostly Cloudy
6:36 AM 45.7 °F 39.8 °F 35.8 °F 68% 29.58 in 10.0 mi West 12.7 mph 18.4 mph N/A   Scattered Clouds
6:55 AM 45.7 °F 39.8 °F 35.8 °F 68% 29.59 in 10.0 mi West 12.7 mph 19.6 mph N/A   Clear
7:16 AM 46.4 °F 40.4 °F 35.6 °F 66% 29.59 in 10.0 mi West 13.8 mph 18.4 mph N/A   Mostly Cloudy
7:36 AM 46.8 °F - 35.8 °F 66% 29.59 in 10.0 mi West 16.1 mph 26.5 mph N/A   Overcast
7:55 AM 46.8 °F - 35.8 °F 66% 29.59 in 10.0 mi West 17.3 mph 26.5 mph N/A   Overcast
8:16 AM 46.4 °F 40.1 °F 36.0 °F 67% 29.61 in 10.0 mi West 15.0 mph 29.9 mph N/A   Overcast
8:36 AM 45.1 °F 38.8 °F 36.5 °F 72% 29.62 in 10.0 mi WNW 13.8 mph 23.0 mph N/A   Overcast
8:55 AM 44.8 °F 39.4 °F 36.7 °F 73% 29.62 in 10.0 mi WNW 10.4 mph 25.3 mph N/A   Overcast
9:16 AM 43.7 °F 36.6 °F 35.6 °F 73% 29.64 in 10.0 mi WNW 15.0 mph 23.0 mph N/A   Overcast
9:35 AM 43.9 °F 36.2 °F 35.8 °F 73% 29.65 in 10.0 mi WNW 17.3 mph 26.5 mph N/A   Overcast
9:55 AM 43.3 °F 36.5 °F 35.1 °F 73% 29.65 in 10.0 mi WNW 13.8 mph 23.0 mph N/A   Overcast
10:16 AM 43.2 °F 35.9 °F 34.3 °F 71% 29.65 in 10.0 mi WNW 15.0 mph 24.2 mph N/A   Mostly Cloudy
10:35 AM 44.2 °F 36.4 °F 34.3 °F 68% 29.65 in 10.0 mi West 18.4 mph 25.3 mph N/A   Mostly Cloudy
10:56 AM 43.5 °F 36.1 °F 34.3 °F 70% 29.66 in 10.0 mi West 16.1 mph 23.0 mph N/A   Mostly Cloudy
11:16 AM 42.4 °F 35.7 °F 35.4 °F 76% 29.67 in 10.0 mi WNW 12.7 mph 23.0 mph N/A Rain Light Rain
11:35 AM 44.1 °F 36.5 °F 34.7 °F 70% 29.67 in 10.0 mi West 17.3 mph 24.2 mph N/A   Mostly Cloudy
11:56 AM 44.1 °F 37.1 °F 35.6 °F 72% 29.68 in 10.0 mi WNW 15.0 mph 23.0 mph N/A   Drizzle
12:15 PM 43.7 °F 37.3 °F 35.4 °F 73% 29.70 in 10.0 mi West 12.7 mph 19.6 mph N/A   Overcast
12:35 PM 45.1 °F 38.1 °F 36.0 °F 70% 29.70 in 10.0 mi WNW 16.1 mph 24.2 mph N/A   Mostly Cloudy
12:56 PM 45.1 °F 38.4 °F 34.7 °F 67% 29.71 in 10.0 mi WNW 15.0 mph 25.3 mph N/A   Mostly Cloudy
1:15 PM 45.0 °F 37.6 °F 36.0 °F 71% 29.71 in 10.0 mi West 17.3 mph 24.2 mph N/A   Mostly Cloudy
1:35 PM 45.3 °F 37.8 °F 34.7 °F 66% 29.72 in 10.0 mi West 18.4 mph 28.8 mph N/A   Mostly Cloudy
1:56 PM 44.6 °F 37.8 °F 35.1 °F 69% 29.72 in 10.0 mi West 15.0 mph 29.9 mph N/A   Mostly Cloudy
2:15 PM 45.0 °F 37.6 °F 34.9 °F 68% 29.73 in 10.0 mi West 17.3 mph 25.3 mph N/A   Mostly Cloudy
2:36 PM 44.4 °F 36.9 °F 35.4 °F 71% 29.74 in 10.0 mi West 17.3 mph 25.3 mph N/A   Overcast
2:55 PM 44.8 °F 38.3 °F 36.5 °F 73% 29.75 in 10.0 mi West 13.8 mph 31.1 mph N/A   Overcast
3:15 PM 45.1 °F 38.8 °F 36.3 °F 71% 29.75 in 10.0 mi WNW 13.8 mph 23.0 mph N/A   Mostly Cloudy
3:36 PM 40.8 °F 34.1 °F 36.5 °F 85% 29.77 in 4.0 mi NW 11.5 mph 28.8 mph N/A Rain Rain
3:55 PM 43.0 °F 36.0 °F 38.5 °F 84% 29.78 in 10.0 mi WNW 13.8 mph 28.8 mph N/A   Overcast
4:16 PM 41.0 °F 33.5 °F 36.1 °F 83% 29.80 in 4.0 mi NW 13.8 mph 29.9 mph N/A Rain Heavy Rain
4:36 PM 40.3 °F 31.3 °F 37.0 °F 88% 29.80 in 10.0 mi NW 18.4 mph 25.3 mph N/A Rain Light Rain
4:55 PM 40.3 °F 33.9 °F 36.9 °F 88% 29.82 in 7.0 mi NW 10.4 mph 21.9 mph N/A Rain Rain
5:16 PM 40.1 °F 33.2 °F 36.9 °F 88% 29.83 in 7.0 mi NW 11.5 mph 21.9 mph N/A Rain Light Rain
5:35 PM 39.7 °F 32.7 °F 36.5 °F 88% 29.84 in 4.0 mi NW 11.5 mph 19.6 mph N/A Rain Rain
5:55 PM 40.3 °F 32.6 °F 36.5 °F 86% 29.85 in 10.0 mi NNW 13.8 mph 21.9 mph N/A   Overcast
6:16 PM 40.1 °F 32.0 °F 36.0 °F 85% 29.86 in 10.0 mi NW 15.0 mph 27.6 mph N/A   Mostly Cloudy
6:35 PM 40.1 °F 32.4 °F 35.6 °F 84% 29.87 in 10.0 mi WNW 13.8 mph 24.2 mph N/A   Mostly Cloudy
6:56 PM 40.1 °F 31.0 °F 34.9 °F 82% 29.88 in 10.0 mi NW 18.4 mph 24.2 mph N/A   Mostly Cloudy
7:15 PM 40.5 °F 32.5 °F 34.7 °F 80% 29.88 in 10.0 mi NW 15.0 mph 24.2 mph N/A   Mostly Cloudy
7:36 PM 38.7 °F 31.8 °F 35.1 °F 87% 29.90 in 7.0 mi NW 10.4 mph 21.9 mph N/A Rain Light Rain
7:55 PM 39.6 °F 31.7 °F 34.0 °F 80% 29.90 in 10.0 mi NW 13.8 mph 23.0 mph N/A   Scattered Clouds
8:16 PM 40.1 °F 33.6 °F 33.8 °F 78% 29.91 in 10.0 mi WNW 10.4 mph 19.6 mph N/A   Scattered Clouds
8:36 PM 40.1 °F 34.1 °F 33.3 °F 77% 29.92 in 10.0 mi NW 9.2 mph 20.7 mph N/A   Mostly Cloudy
8:55 PM 40.1 °F 34.1 °F 32.9 °F 75% 29.92 in 10.0 mi NW 9.2 mph 18.4 mph N/A   Overcast
9:16 PM 39.7 °F 33.7 °F 33.1 °F 77% 29.93 in 10.0 mi WNW 9.2 mph 19.6 mph N/A   Mostly Cloudy
9:35 PM 39.4 °F 31.4 °F 33.8 °F 80% 29.93 in 10.0 mi NW 13.8 mph 18.4 mph N/A   Mostly Cloudy
9:56 PM 39.7 °F 33.7 °F 34.3 °F 81% 29.93 in 10.0 mi WNW 9.2 mph 20.7 mph N/A   Overcast
10:15 PM 39.2 °F 33.0 °F 33.1 °F 79% 29.93 in 10.0 mi NNW 9.2 mph 16.1 mph N/A   Mostly Cloudy
10:35 PM 39.2 °F 32.5 °F 32.9 °F 78% 29.94 in 10.0 mi NW 10.4 mph - N/A   Mostly Cloudy
10:55 PM 39.0 °F 34.0 °F 32.5 °F 78% 29.94 in 10.0 mi WNW 6.9 mph - N/A   Overcast
11:15 PM 38.3 °F 31.9 °F 32.5 °F 80% 29.95 in 10.0 mi WNW 9.2 mph - N/A   Mostly Cloudy
11:36 PM 38.5 °F 33.4 °F 33.1 °F 81% 29.95 in 10.0 mi WNW 6.9 mph 17.3 mph N/A   Mostly Cloudy
11:55 PM 38.1 °F 32.9 °F 33.1 °F 82% 29.94 in 10.0 mi West 6.9 mph - N/A   Scattered Clouds